Location: Tel Aviv
(32.0670°N, 34.7670°E)
Time: 21:47:52
(UTC+02:00)

CUTE-I - Pass Details

Date: 23 December 2025
Orbit: 805 x 817 km, 98.7° (Epoch: 21 January)

Event Time Altitude Azimuth Distance (km) Brightness Sun altitude
Rises 18:36:11 0° 211° (SSW) 3,306 ? -23.5°
Reaches altitude 10° 18:39:46 10° 237° (WSW) 2,382 ? -24.3°
Maximum altitude 18:42:21 14° 267° (W) 2,134 ? -24.8°
Drops below altitude 10° 18:44:57 10° 297° (WNW) 2,392 ? -25.3°
Sets 18:48:35 0° 322° (NW) 3,331 ? -26.1°
